Regional Weather Roundup
Issued by NWS

Home | Current Version | Previous Version | Text Only | Print | Product List | Glossary On
Versions: 1 2 3 4 5 6 7 8 9 10 11 12 13 14 15 16 17 18 19 20 21 22 23 24 25 26 27 28 29 30 31 32 33 34 35 36 37 38 39 40 41 42 43 44 45 46 47 48 49 50
000
ASUS44 KJAN 261710
RWRMS

MISSISSIPPI HOURLY WEATHER ROUNDUP
NATIONAL WEATHER SERVICE JACKSON MS
1200 PM CDT THU MAY 26 2016

NOTE: "FAIR: INDICATES FEW OR NO CLOUDS BELOW 12,000 FEET WITH NO
SIGNIFICANT WEATHER AND/OR OBSTRUCTIONS TO VISIBILITY.

MSZ001>002-007>008-010>013-018>021-025>028-034>036-261800-
NORTHWEST MISSISSIPPI

CITY           SKY/WX    TMP DP  RH WIND       PRES   REMARKS
BATESVILLE     FAIR      86  71  60 SW8       30.06F HX  91
CLARKSDALE     PTSUNNY   88  73  62 S12G17    30.04F HX  96
CLEVELAND      FAIR      87  75  65 S12G18    30.04F HX  96
GREENWOOD      MOSUNNY   86  69  56 S9        30.05F HX  90
GREENVILLE     MOSUNNY   85  71  63 S15       30.04S HX  90
OLIVE BRANCH   PTSUNNY   82  79  89 SW12      30.06F HX  93
OXFORD           N/A     86  68  54 SW7       30.08F
TUNICA         MOSUNNY   82  70  65 SW8       30.04F
WINONA         PTSUNNY   85  71  61 SW5       30.07F HX  90
$$

MSZ003>006-009-014>017-022>024-029>033-037>039-261800-
NORTHEAST MISSISSIPPI

CITY           SKY/WX    TMP DP  RH WIND       PRES   REMARKS
COLUMBUS AFB   NOT AVBL
CORINTH        FAIR      86  72  62 VRB7      30.07F HX  92
GOLDN TRIANGLE PTSUNNY   84  68  58 S5        30.09F
STARKVILLE     PTSUNNY   84  70  61 S6        30.08F
TUPELO         MOSUNNY   89  70  53 VRB7      30.07F HX  94
$$

MSZ040-058-261800-
CENTRAL MISSISSIPPI

CITY           SKY/WX    TMP DP  RH WIND       PRES   REMARKS
JACKSON INTL   PTSUNNY   84  71  65 S9        30.08F
JACKSON HAWKNS PTSUNNY   81  70  69 S9        30.09S
MADISON        FAIR      82  70  65 S8        30.08S
MERIDIAN KEY   MOSUNNY   87  65  47 VRB3      30.10F
MERIDIAN NAS   MOSUNNY   88  58  36 VRB6      30.11F
VICKSBURG TVR  NOT AVBL
VICKSBURG VKS  PTSUNNY   86  72  62 S8        30.05F HX  92
$$

MSZ059>079-261800-
SOUTH MISSISSIPPI

CITY           SKY/WX    TMP DP  RH WIND       PRES   REMARKS
BROOKHAVEN     FAIR     N/A N/A N/A S6        30.10F
COLUMBIA       FAIR      84  70  61 S8        30.13F
HATTIESBURG    MOSUNNY   83  67  58 S8        30.11F
MCCOMB         CLOUDY    83  68  60 S8        30.09F
NATCHEZ        MOSUNNY   86  72  62 S13       30.06F HX  92
PINE BELT      MOSUNNY   82  68  61 SW8       30.13S
$$

MSZ080>082-261800-
COASTAL MISSISSIPPI

CITY           SKY/WX    TMP DP  RH WIND       PRES   REMARKS
BAY ST LOUIS   MOSUNNY   82  64  54 SE7       30.11F
BILOXI         SUNNY     83  72  69 SE13      30.11F
PASCAGOULA     MOSUNNY   84  69  60 SE9       30.12F
GULFPORT       SUNNY     82  69  64 SE13      30.11F
$$



USA.gov is the U.S. government's official web portal to all federal, state and local government web resources and services.